📊 Raw Sensor Data
Showing records 51001 to 51025 of 85,142 total
| ID | Distance (ft) | Battery V | Battery A | Int Temp (°F) | Int Humid (%) | Ext Temp (°F) | Solar V | RSSI | SNR | Time Stamp |
|---|---|---|---|---|---|---|---|---|---|---|
| 34154 | 15.1 | 4.04 | -5 | 52 | 41 | 52 | 1.10 | -75 | 8 | 03/05/2025 06:15 PM |
| 34153 | 15.2 | 4.06 | 0 | 54 | 41 | 53 | 4.60 | -73 | 7 | 03/05/2025 06:00 PM |
| 34152 | 15.2 | 4.09 | -6 | 58 | 39 | 55 | 4.50 | -74 | 8 | 03/05/2025 05:45 PM |
| 34151 | 15.2 | 4.08 | 0 | 59 | 38 | 57 | 5.10 | -74 | 7 | 03/05/2025 05:30 PM |
| 34150 | 15.1 | 4.07 | 26 | 56 | 40 | 55 | 4.50 | -75 | 8 | 03/05/2025 05:15 PM |
| 34149 | 15.1 | 4.10 | 46 | 57 | 39 | 56 | 4.50 | -74 | 8 | 03/05/2025 05:00 PM |
| 34148 | 15.2 | 4.03 | 0 | 57 | 39 | 56 | 5.10 | -75 | 7 | 03/05/2025 04:45 PM |
| 34147 | 15.2 | 4.03 | 0 | 58 | 39 | 57 | 5.10 | -75 | 8 | 03/05/2025 04:30 PM |
| 34146 | 15.1 | 4.07 | 0 | 58 | 39 | 57 | 5.10 | -74 | 8 | 03/05/2025 04:15 PM |
| 34145 | 15.1 | 4.02 | 0 | 58 | 39 | 58 | 5.10 | -76 | 8 | 03/05/2025 04:00 PM |
| 34144 | 15.2 | 4.01 | 0 | 58 | 39 | 57 | 5.10 | -73 | 8 | 03/05/2025 03:45 PM |
| 34143 | 15.1 | 4.01 | 0 | 58 | 39 | 57 | 5.10 | -73 | 7 | 03/05/2025 03:30 PM |
| 34142 | 15.2 | 4.01 | 0 | 58 | 39 | 57 | 5.10 | -74 | 7 | 03/05/2025 03:15 PM |
| 34141 | 15.1 | 4.07 | 0 | 58 | 39 | 56 | 5.10 | -72 | 8 | 03/05/2025 03:00 PM |
| 34140 | 15.2 | 4.14 | 0 | 58 | 38 | 56 | 5.10 | -74 | 7 | 03/05/2025 02:30 PM |
| 34139 | 15.2 | 4.01 | 0 | 57 | 38 | 56 | 5.10 | -73 | 8 | 03/05/2025 02:15 PM |
| 34138 | 15.1 | 4.01 | 0 | 57 | 38 | 57 | 5.10 | -74 | 8 | 03/05/2025 02:00 PM |
| 34137 | 15.2 | 4.04 | 0 | 56 | 39 | 56 | 5.10 | -73 | 7 | 03/05/2025 01:45 PM |
| 34136 | 15.2 | 4.01 | 0 | 56 | 39 | 55 | 5.10 | -73 | 8 | 03/05/2025 01:30 PM |
| 34135 | 15.2 | 4.01 | 0 | 57 | 39 | 56 | 5.10 | -75 | 8 | 03/05/2025 01:15 PM |
| 34134 | 15.2 | 4.01 | 0 | 57 | 39 | 55 | 5.10 | -73 | 8 | 03/05/2025 01:00 PM |
| 34133 | 15.2 | 4.04 | 0 | 57 | 38 | 56 | 5.10 | -75 | 8 | 03/05/2025 12:45 PM |
| 34132 | 15.2 | 4.01 | 0 | 56 | 39 | 55 | 5.10 | -73 | 8 | 03/05/2025 12:30 PM |
| 34131 | 15.2 | 4.01 | 0 | 56 | 39 | 55 | 5.10 | -74 | 8 | 03/05/2025 12:15 PM |
| 34130 | 15.2 | 4.11 | 39 | 56 | 39 | 55 | 4.50 | -74 | 8 | 03/05/2025 12:00 PM |